Location: Torch Lake Township
(45.0753°N, 85.3586°W)
Time: 23:34:29
(UTC-04:00)

Amateur Radio Satellites - All Passes

Search period start: 29 August 2015 23:04
Search period end: 30 August 2015 23:04
Location: Torch Lake Township, 45.0753°N, 85.3586°W

Satellite Date Start Highest point End Downlink Frequencies (MHz)
Time Altitude Azimuth
ESTCUBE 1 29 Aug 23:15:48 23:19:30 26° 67° (ENE) 23:23:17 437.505/2401.250
DX 1 29 Aug 23:24:33 23:28:50 66° 73° (ENE) 23:33:10 434.975-435.025
DELFI C3 29 Aug 23:28:23 23:31:51 26° 266° (W) 23:35:16 145.870
AISAT 29 Aug 23:37:03 23:41:23 58° 72° (ENE) 23:45:45 437.250
Oscar 11 29 Aug 23:38:30 23:41:17 16° 271° (W) 23:43:56 145.826/435.025
UKube-1 29 Aug 23:40:53 23:45:11 88° 76° (ENE) 23:49:32 .
BEESAT 3 29 Aug 23:41:38 23:44:07 16° 35° (NE) 23:46:40 437.485
UNISAT 6 29 Aug 23:41:59 23:46:06 32° 95° (E) 23:50:10 437.425
HUMSAT D 29 Aug 23:42:56 23:47:07 49° 261° (W) 23:51:21 437.325/437.525
POLYITAN 1 29 Aug 23:44:04 23:45:41 12° 87° (E) 23:47:31 437.675
CUBEBUG 1 29 Aug 23:45:15 23:49:17 41° 70° (ENE) 23:53:23 437.445
POPSAT HIP 1 29 Aug 23:47:25 23:49:17 13° 88° (E) 23:51:21 437.405
Cosmos 2504 29 Aug 23:49:24 23:56:33 37° 85° (E) 00:04:11 435.465 / 435.565
DUCHIFAT 1 29 Aug 23:49:57 23:51:54 13° 88° (E) 23:54:02 145.980
BEESAT 2 29 Aug 23:50:14 23:52:37 15° 34° (NE) 23:55:05 435.950
SPROUT 29 Aug 23:51:29 23:54:06 16° 63° (ENE) 23:56:52 437.525
QB50P2 30 Aug 00:02:48 00:05:53 20° 91° (E) 00:09:05 145.880/145.840
NANOSAT C BR1 30 Aug 00:05:40 00:08:47 20° 92° (E) 00:12:01 145.865
VELOX 1 30 Aug 00:05:55 00:10:19 75° 257° (WSW) 00:14:45 145.980
AUBIESAT-1 30 Aug 00:07:19 00:10:54 31° 100° (E) 00:14:16 437.475
BUGSAT 1 30 Aug 00:07:57 00:09:49 13° 88° (E) 00:11:54 437.445
RS-15 30 Aug 00:08:44 00:19:09 37° 26° (NNE) 00:30:07 29.354- 29.394
M-CUBED/EXP-1 PRIME 30 Aug 00:10:10 00:14:04 40° 102° (ESE) 00:17:39 437.505
TIGRISAT 30 Aug 00:11:15 00:15:51 61° 100° (E) 00:20:18 435.000
QB50P1 30 Aug 00:17:57 00:21:37 27° 94° (E) 00:25:18 145.935-145.965
ZACube-1 30 Aug 00:18:12 00:19:29 11° 275° (W) 00:20:31 437.345
50 SAT 30 Aug 00:23:10 00:26:52 37° 263° (W) 00:30:34 437.505
ANTELSAT 30 Aug 00:27:19 00:31:59 89° 289° (WNW) 00:36:29 437.575/2403.000
ESTCUBE 1 30 Aug 00:52:10 00:56:16 34° 264° (W) 01:00:21 437.505/2401.250
TISAT 1 30 Aug 01:02:55 01:06:58 50° 72° (ENE) 01:11:06 437.305
YUBILEINY 30 Aug 01:02:58 01:08:42 18° 306° (NW) 01:14:02 435.215
DX 1 30 Aug 01:03:34 01:05:37 13° 272° (W) 01:07:27 434.975-435.025
SWISSCUBE 30 Aug 01:15:04 01:17:58 17° 61° (ENE) 01:21:02 437.505
AISAT 30 Aug 01:15:46 01:18:23 15° 271° (W) 01:20:50 437.250
POLYITAN 1 30 Aug 01:17:49 01:22:08 69° 286° (WNW) 01:26:24 437.675
BEESAT 3 30 Aug 01:18:33 01:22:37 84° 235° (SW) 01:26:36 437.485
UNISAT 6 30 Aug 01:18:48 01:22:49 29° 293° (WNW) 01:26:41 437.425
POPSAT HIP 1 30 Aug 01:21:22 01:25:39 65° 286° (WNW) 01:29:54 437.405
CUBEBUG 1 30 Aug 01:22:36 01:25:51 20° 268° (W) 01:29:01 437.445
DUCHIFAT 1 30 Aug 01:23:55 01:28:11 63° 286° (WNW) 01:32:24 145.980
SPROUT 30 Aug 01:25:35 01:29:47 55° 260° (W) 01:34:03 437.525
BEESAT 2 30 Aug 01:27:11 01:31:17 90° 50° (NE) 01:35:18 435.950
SO-50 30 Aug 01:27:56 01:29:36 12° 108° (ESE) 01:31:32 436.795
CUSAT 1 30 Aug 01:29:37 01:33:22 75° 98° (E) 01:38:26 437.405
QB50P2 30 Aug 01:37:54 01:42:00 42° 289° (WNW) 01:46:02 145.880/145.840
Cosmos 2504 30 Aug 01:40:35 01:48:31 53° 286° (WNW) 01:56:51 435.465 / 435.565
NANOSAT C BR1 30 Aug 01:40:46 01:44:49 41° 289° (WNW) 01:48:49 145.865
BUGSAT 1 30 Aug 01:41:32 01:45:45 63° 286° (WNW) 01:49:58 437.445
DANDE 30 Aug 01:41:40 01:44:57 56° 96° (E) 01:49:19 436.750
AUBIESAT-1 30 Aug 01:42:10 01:45:30 24° 300° (WNW) 01:48:34 437.475
M-CUBED/EXP-1 PRIME 30 Aug 01:45:29 01:48:34 20° 302° (WNW) 01:51:24 437.505
AIST 2 30 Aug 01:48:00 01:51:52 35° 46° (NE) 01:55:43 435.215
TIGRISAT 30 Aug 01:49:07 01:52:07 17° 298° (WNW) 01:54:56 435.000
ITUPSAT 1 30 Aug 01:50:59 01:55:08 31° 67° (ENE) 01:59:21 437.325
QB50P1 30 Aug 01:53:40 01:57:28 30° 292° (WNW) 02:01:12 145.935-145.965
GONETS M04 30 Aug 02:00:33 02:01:33 10° 72° (ENE) 02:03:17
Oscar 19 30 Aug 02:05:16 02:08:40 18° 89° (E) 02:12:14 437.125/150
ANTELSAT 30 Aug 02:06:19 02:08:04 12° 301° (WNW) 02:09:35 437.575/2403.000
RS-15 30 Aug 02:21:42 02:33:34 84° 54° (NE) 02:45:52 29.354- 29.394
BEESAT 30 Aug 02:24:59 02:29:43 65° 72° (ENE) 02:34:28 436.000
KKS-1 30 Aug 02:36:39 02:39:17 16° 62° (ENE) 02:42:05 437.445
PCSat 30 Aug 02:39:22 02:43:45 27° 110° (ESE) 02:48:16 145.827
TISAT 1 30 Aug 02:40:26 02:43:05 16° 270° (W) 02:45:36 437.305
SWISSCUBE 30 Aug 02:50:37 02:55:22 66° 258° (WSW) 03:00:08 437.505
ITAMSAT 1 30 Aug 02:59:48 03:02:26 14° 87° (E) 03:05:20 435.822/435.867
SO-50 30 Aug 03:04:37 03:09:27 86° 121° (ESE) 03:14:24 436.795
CUSAT 1 30 Aug 03:15:14 03:17:09 12° 308° (NW) 03:19:03 437.405
AIST 2 30 Aug 03:26:44 03:30:21 28° 244° (WSW) 03:33:50 435.215
DANDE 30 Aug 03:27:30 03:29:04 12° 306° (NW) 03:30:35 436.750
ITUPSAT 1 30 Aug 03:28:42 03:33:00 32° 264° (W) 03:37:16 437.325
Cosmos 2504 30 Aug 03:40:08 03:43:20 12° 312° (NW) 03:46:02 435.465 / 435.565
Oscar 19 30 Aug 03:43:22 03:48:32 63° 288° (WNW) 03:53:40 437.125/150
GONETS M04 30 Aug 03:48:15 03:56:38 58° 92° (E) 04:05:08
JAS-2 30 Aug 03:56:57 04:03:18 34° 91° (E) 04:09:04 435.910
STARS 30 Aug 03:57:51 04:02:11 59° 73° (ENE) 04:06:34 437.465
BEESAT 30 Aug 04:05:14 04:08:04 15° 271° (W) 04:10:43 436.000
Gurwin Techsat 1B 30 Aug 04:07:01 04:12:21 71° 102° (ESE) 04:17:39 435.225
MOZHAYETS 4 30 Aug 04:09:10 04:12:33 21° 65° (ENE) 04:16:02
KKS-1 30 Aug 04:11:04 04:15:28 62° 259° (W) 04:19:56 437.445
Cosmos 2499 30 Aug 04:13:47 04:19:55 24° 80° (E) 04:26:34 435.465 / 435.565
PCSat 30 Aug 04:21:39 04:26:55 51° 308° (NW) 04:32:14 145.827
RS-15 30 Aug 04:35:10 04:45:02 30° 255° (WSW) 04:54:41 29.354- 29.394
ITAMSAT 1 30 Aug 04:37:26 04:42:39 77° 286° (WNW) 04:47:49 435.822/435.867
SO-50 30 Aug 04:46:59 04:50:40 20° 326° (NW) 04:54:19 436.795
O/OREOS (USA 219) 30 Aug 04:55:39 04:58:58 20° 50° (NE) 05:02:24 437.305
HORYU 2 30 Aug 05:11:39 05:15:40 32° 96° (E) 05:19:42 437.375
AO-7 30 Aug 05:18:36 05:26:32 48° 100° (E) 05:34:29 29.400- 29.500
Oscar 19 30 Aug 05:26:37 05:26:58 10° 305° (NW) 05:27:04 437.125/150
VERMONT LUNAR 30 Aug 05:27:01 05:28:38 14° 157° (SSE) 05:30:18 437.305
STARS 30 Aug 05:36:30 05:39:04 15° 271° (W) 05:41:29 437.465
JAS-2 30 Aug 05:41:41 05:48:40 50° 293° (WNW) 05:54:49 435.910
MOZHAYETS 4 30 Aug 05:45:02 05:49:30 47° 262° (W) 05:53:57
GONETS M04 30 Aug 05:46:12 05:54:01 35° 294° (WNW) 06:01:44
Gurwin Techsat 1B 30 Aug 05:48:12 05:51:50 18° 300° (WNW) 05:55:16 435.225
CUBESAT XI-V 30 Aug 05:56:55 06:00:32 24° 66° (ENE) 06:04:14 437.345
Cosmos 2499 30 Aug 06:03:39 06:12:08 81° 280° (W) 06:21:04 435.465 / 435.565
PCSat 30 Aug 06:09:03 06:11:43 13° 331° (NNW) 06:14:14 145.827
ITAMSAT 1 30 Aug 06:19:16 06:21:23 12° 304° (WNW) 06:23:15 435.822/435.867
O/OREOS (USA 219) 30 Aug 06:34:17 06:38:49 56° 250° (WSW) 06:43:17 437.305
STRAND 1 30 Aug 06:35:33 06:39:07 20° 62° (ENE) 06:42:50 437.568
CUTE-I 30 Aug 06:47:45 06:50:35 15° 87° (E) 06:53:40 437.470
HORYU 2 30 Aug 06:48:25 06:52:13 27° 293° (WNW) 06:55:56 437.375
VERMONT LUNAR 30 Aug 07:01:54 07:04:35 30° 173° (S) 07:07:16 437.305
PHONESAT 2.4 30 Aug 07:08:59 07:10:04 11° 152° (SSE) 07:11:13 2401.200-2431.200
AO-7 30 Aug 07:11:35 07:19:21 44° 299° (WNW) 07:26:59 29.400- 29.500
YUBILEINY 30 Aug 07:14:14 07:18:27 14° 50° (NE) 07:23:09 435.215
PRISM 30 Aug 07:15:28 07:18:52 26° 67° (ENE) 07:22:21 437.425
JAS-2 30 Aug 07:29:46 07:32:00 11° 314° (NW) 07:33:49 435.910
CUBESAT XI-V 30 Aug 07:33:27 07:37:46 40° 263° (W) 07:42:07 437.345
Cubesat XI-IV 30 Aug 07:40:33 07:45:37 44° 98° (E) 07:50:42 437.490
Cosmos 2499 30 Aug 08:00:50 08:07:01 20° 304° (NW) 08:13:01 435.465 / 435.565
Cosmos 2491 30 Aug 08:10:33 08:11:12 10° 72° (ENE) 08:12:37 435.465 / 435.565
STRAND 1 30 Aug 08:12:54 08:17:56 60° 259° (W) 08:23:00 437.568
BRITE-PL 30 Aug 08:12:56 08:16:53 21° 89° (E) 08:21:07 437.365/2234.400
CUTE-I 30 Aug 08:26:02 08:31:22 77° 287° (WNW) 08:36:41 437.470
VERMONT LUNAR 30 Aug 08:38:02 08:40:40 29° 189° (S) 08:43:19 437.305
HO-68 30 Aug 08:39:44 08:42:39 13° 83° (E) 08:46:04 435.675
PHONESAT 2.4 30 Aug 08:44:20 08:47:20 29° 167° (SSE) 08:50:21 2401.200-2431.200
PRISM 30 Aug 08:50:39 08:54:15 28° 264° (W) 08:57:48 437.425
GOMX 1 30 Aug 08:51:28 08:56:00 27° 92° (E) 09:00:41 467.674
AIST 1 30 Aug 08:55:00 08:58:49 34° 92° (E) 09:02:43
AO-7 30 Aug 09:07:06 09:10:09 12° 322° (NW) 09:12:48 29.400- 29.500
YUBILEINY 30 Aug 09:08:52 09:17:39 63° 76° (ENE) 09:26:22 435.215
CUTE 1.7 + AOD 2 30 Aug 09:13:15 09:15:29 14° 88° (E) 09:17:54 437.475
DOVE 4 30 Aug 09:14:29 09:18:57 27° 92° (E) 09:23:27 437.250
Cubesat XI-IV 30 Aug 09:21:03 09:25:33 28° 296° (WNW) 09:29:59 437.490
AUBIESAT-1 30 Aug 09:25:35 09:25:52 10° 52° (NE) 09:26:23 437.475
CANX-2 30 Aug 09:26:10 09:29:27 22° 92° (E) 09:32:46 2200.000
M-CUBED/EXP-1 PRIME 30 Aug 09:27:16 09:29:12 13° 54° (NE) 09:31:19 437.505
Cosmos 2504 30 Aug 09:34:26 09:38:32 15° 51° (NE) 09:43:03 435.465 / 435.565
PCSat 30 Aug 09:43:08 09:44:07 10° 23° (NNE) 09:45:15 145.827
BRITE-PL 30 Aug 09:50:26 09:55:47 63° 287° (WNW) 10:01:22 437.365/2234.400
SEEDS 30 Aug 09:50:47 09:54:25 28° 94° (E) 09:58:04 437.485
ANTELSAT 30 Aug 09:53:55 09:56:10 14° 60° (ENE) 09:58:37 437.575/2403.000
SO-50 30 Aug 09:54:25 09:58:30 25° 38° (NE) 10:02:35 436.795
Cosmos 2491 30 Aug 09:57:54 10:06:18 57° 91° (E) 10:14:48 435.465 / 435.565
CUTE-I 30 Aug 10:08:20 10:10:40 13° 304° (WNW) 10:12:46 437.470
CINEMA 3 30 Aug 10:13:36 10:18:22 42° 96° (E) 10:23:03 145.822/145.860
VERMONT LUNAR 30 Aug 10:15:15 10:16:35 12° 205° (SSW) 10:17:53 437.305
COMPASS 1 30 Aug 10:15:38 10:19:34 41° 97° (E) 10:23:30 437.405
CUBEBUG 2 30 Aug 10:17:11 10:20:42 21° 90° (E) 10:24:15 437.445
CUSAT 1 30 Aug 10:20:10 10:24:53 18° 58° (ENE) 10:30:16 437.405
PHONESAT 2.4 30 Aug 10:21:41 10:24:51 37° 184° (S) 10:28:02 2401.200-2431.200
HO-68 30 Aug 10:24:36 10:31:50 73° 104° (ESE) 10:39:01 435.675
ZACube-1 30 Aug 10:26:05 10:28:33 15° 88° (E) 10:31:11 437.345
AAUSAT CUBESAT 2 30 Aug 10:27:27 10:31:27 47° 99° (E) 10:35:26 437.432
UWE-3 30 Aug 10:28:06 10:31:32 21° 91° (E) 10:35:00 435.000/436.395/437.385
GOMX 1 30 Aug 10:29:08 10:34:17 46° 289° (WNW) 10:39:30 467.674
FUNcube-1 30 Aug 10:32:06 10:34:53 17° 88° (E) 10:37:49 145.935
AIST 1 30 Aug 10:33:15 10:36:36 22° 290° (WNW) 10:39:53
DANDE 30 Aug 10:34:48 10:38:50 16° 58° (ENE) 10:43:37 436.750
POLYITAN 1 30 Aug 10:39:16 10:41:13 13° 62° (ENE) 10:43:22 437.675
POPSAT HIP 1 30 Aug 10:42:27 10:44:32 14° 62° (ENE) 10:46:49 437.405
UNISAT 6 30 Aug 10:42:28 10:46:45 37° 69° (ENE) 10:51:07 437.425
DUCHIFAT 1 30 Aug 10:44:34 10:46:40 14° 62° (ENE) 10:48:56 145.980
CUTE 1.7 + AOD 2 30 Aug 10:47:39 10:51:49 55° 287° (WNW) 10:55:55 437.475
ISS 30 Aug 10:51:32 10:54:41 50° 144° (SE) 10:57:50 145.825
DOVE 4 30 Aug 10:51:48 10:56:50 44° 290° (WNW) 11:01:50 437.250
AUBIESAT-1 30 Aug 10:55:06 10:59:48 63° 68° (ENE) 11:04:26 437.475
QB50P2 30 Aug 10:57:49 11:00:54 20° 65° (ENE) 11:04:05 145.880/145.840
M-CUBED/EXP-1 PRIME 30 Aug 10:58:30 11:03:18 79° 69° (ENE) 11:08:04 437.505
NANOSAT C BR1 30 Aug 11:00:18 11:03:22 20° 65° (ENE) 11:06:33 145.865
BUGSAT 1 30 Aug 11:00:40 11:02:19 12° 61° (ENE) 11:04:08 437.445
CANX-2 30 Aug 11:01:35 11:05:29 35° 290° (WNW) 11:09:19 2200.000
DELFI C3 30 Aug 11:04:41 11:08:20 34° 96° (E) 11:11:59 145.870
YUBILEINY 30 Aug 11:06:28 11:13:59 31° 277° (W) 11:21:14 435.215
TIGRISAT 30 Aug 11:11:22 11:16:00 68° 74° (ENE) 11:20:44 435.000
QB50P1 30 Aug 11:12:37 11:16:10 27° 68° (ENE) 11:19:49 145.935-145.965
Oscar 11 30 Aug 11:21:43 11:26:04 82° 101° (E) 11:30:23 145.826/435.025
PCSat 30 Aug 11:24:16 11:29:16 36° 47° (NE) 11:34:16 145.827
Cosmos 2504 30 Aug 11:24:30 11:33:01 63° 76° (ENE) 11:41:04 435.465 / 435.565
HUMSAT D 30 Aug 11:25:22 11:28:46 23° 93° (E) 11:32:11 437.325/437.525
SEEDS 30 Aug 11:26:34 11:30:10 27° 292° (WNW) 11:33:40 437.485
ANTELSAT 30 Aug 11:27:39 11:32:20 82° 256° (WSW) 11:37:06 437.575/2403.000
UKube-1 30 Aug 11:28:06 11:29:56 13° 88° (E) 11:31:59 .
BRITE-PL 30 Aug 11:32:08 11:33:27 11° 303° (WNW) 11:34:29 437.365/2234.400
SO-50 30 Aug 11:34:33 11:39:29 63° 238° (WSW) 11:44:15 436.795
CINEMA 3 30 Aug 11:51:09 11:55:20 27° 294° (WNW) 11:59:24 145.822/145.860
COMPASS 1 30 Aug 11:51:56 11:54:59 19° 294° (WNW) 11:57:54 437.405
CUBEBUG 2 30 Aug 11:53:07 11:57:38 45° 289° (WNW) 12:02:02 437.445
VELOX 1 30 Aug 11:55:12 11:58:13 18° 91° (E) 12:01:22 145.980
Cosmos 2491 30 Aug 11:55:50 12:03:41 35° 294° (WNW) 12:11:25 435.465 / 435.565
50 SAT 30 Aug 11:56:34 11:59:27 20° 92° (E) 12:02:24 437.505
PHONESAT 2.4 30 Aug 11:59:40 12:02:18 20° 200° (SSW) 12:04:53 2401.200-2431.200
ZACube-1 30 Aug 12:00:54 12:05:24 60° 287° (WNW) 12:09:46 437.345
CUSAT 1 30 Aug 12:01:06 12:08:37 74° 77° (ENE) 12:16:55 437.405
UWE-3 30 Aug 12:03:53 12:08:18 44° 289° (WNW) 12:12:35 435.000/436.395/437.385
AAUSAT CUBESAT 2 30 Aug 12:03:56 12:06:44 17° 295° (WNW) 12:09:23 437.432
FUNcube-1 30 Aug 12:07:10 12:11:37 53° 287° (WNW) 12:15:55 145.935
POLYITAN 1 30 Aug 12:12:20 12:16:36 71° 258° (WSW) 12:20:55 437.675
HO-68 30 Aug 12:13:12 12:19:00 26° 303° (WNW) 12:24:37 435.675
POPSAT HIP 1 30 Aug 12:15:42 12:19:55 67° 259° (WSW) 12:24:12 437.405
DANDE 30 Aug 12:15:56 12:23:08 68° 77° (ENE) 12:31:33 436.750
DUCHIFAT 1 30 Aug 12:17:46 12:21:58 66° 258° (WSW) 12:26:14 145.980
UNISAT 6 30 Aug 12:19:40 12:23:37 26° 267° (W) 12:27:32 437.425
ISS 30 Aug 12:28:07 12:31:10 35° 343° (NNW) 12:34:12 145.825
AUBIESAT-1 30 Aug 12:31:44 12:34:51 17° 265° (W) 12:37:49 437.475
QB50P2 30 Aug 12:32:28 12:36:31 42° 262° (W) 12:40:37 145.880/145.840
BUGSAT 1 30 Aug 12:33:13 12:37:15 70° 257° (WSW) 12:41:23 437.445
NANOSAT C BR1 30 Aug 12:34:54 12:38:56 42° 262° (W) 12:43:00 145.865
M-CUBED/EXP-1 PRIME 30 Aug 12:36:04 12:38:36 14° 267° (W) 12:40:55 437.505
DELFI C3 30 Aug 12:40:08 12:43:13 21° 293° (WNW) 12:46:13 145.870
ESTCUBE 1 30 Aug 12:42:18 12:46:34 41° 98° (E) 12:50:51 437.505/2401.250
DX 1 30 Aug 12:46:49 12:51:14 87° 290° (WNW) 12:55:38 434.975-435.025
QB50P1 30 Aug 12:48:11 12:51:57 30° 265° (W) 12:55:44 145.935-145.965
TIGRISAT 30 Aug 12:50:39 12:53:18 14° 273° (W) 12:55:44 435.000
Oscar 11 30 Aug 13:00:01 13:01:41 12° 299° (WNW) 13:03:07 145.826/435.025
HUMSAT D 30 Aug 13:00:43 13:04:35 34° 291° (WNW) 13:08:22 437.325/437.525
AISAT 30 Aug 13:01:51 13:06:22 89° 131° (SE) 13:10:52 437.250
UKube-1 30 Aug 13:02:15 13:06:35 66° 287° (WNW) 13:10:53 .
PCSat 30 Aug 13:07:42 13:12:46 40° 247° (WSW) 13:17:45 145.827
CUBEBUG 1 30 Aug 13:07:48 13:12:12 64° 101° (E) 13:16:35 437.445
SPROUT 30 Aug 13:10:38 13:14:00 22° 92° (E) 13:17:28 437.525
Cosmos 2504 30 Aug 13:17:28 13:24:42 31° 277° (W) 13:31:26 435.465 / 435.565
Oscar 19 30 Aug 13:23:40 13:28:11 32° 66° (ENE) 13:32:48 437.125/150
50 SAT 30 Aug 13:30:34 13:34:05 32° 290° (WNW) 13:37:31 437.505
VELOX 1 30 Aug 13:30:46 13:35:04 48° 289° (WNW) 13:39:22 145.980
CUSAT 1 30 Aug 13:44:31 13:50:46 27° 273° (W) 13:57:12 437.405
Gurwin Techsat 1B 30 Aug 13:52:12 13:55:58 21° 62° (ENE) 13:59:53 435.225
GONETS M04 30 Aug 13:55:58 14:03:34 32° 65° (ENE) 14:11:22
DANDE 30 Aug 13:59:45 14:06:00 29° 271° (W) 14:12:46 436.750
ISS 30 Aug 14:05:22 14:08:08 25° 3° (N) 14:10:54 145.825
JAS-2 30 Aug 14:10:40 14:16:26 24° 57° (ENE) 14:22:28 435.910
ITAMSAT 1 30 Aug 14:19:07 14:23:26 28° 65° (ENE) 14:27:51 435.822/435.867
ESTCUBE 1 30 Aug 14:19:42 14:23:13 22° 295° (WNW) 14:26:38 437.505/2401.250
TISAT 1 30 Aug 14:20:41 14:24:58 70° 102° (ESE) 14:29:13 437.305
BEESAT 30 Aug 14:24:43 14:27:09 14° 88° (E) 14:29:48 436.000
DX 1 30 Aug 14:25:42 14:26:51 11° 301° (WNW) 14:27:46 434.975-435.025
AO-7 30 Aug 14:30:37 14:36:06 21° 47° (NE) 14:41:52 29.400- 29.500
AISAT 30 Aug 14:40:40 14:42:19 12° 301° (WNW) 14:43:44 437.250
CUBEBUG 1 30 Aug 14:45:29 14:48:06 15° 298° (WNW) 14:50:35 437.445
SPROUT 30 Aug 14:46:11 14:50:13 37° 290° (WNW) 14:54:12 437.525
SWISSCUBE 30 Aug 14:49:16 14:53:16 27° 94° (E) 14:57:19 437.505
Oscar 19 30 Aug 15:02:45 15:07:30 36° 264° (W) 15:12:15 437.125/150
BEESAT 3 30 Aug 15:16:19 15:16:34 10° 109° (ESE) 15:17:02 437.485
ITUPSAT 1 30 Aug 15:26:32 15:31:14 55° 100° (E) 15:35:55 437.325
Gurwin Techsat 1B 30 Aug 15:30:17 15:35:32 62° 259° (WSW) 15:40:50 435.225
ISS 30 Aug 15:41:51 15:45:02 49° 23° (NNE) 15:48:11 145.825
GONETS M04 30 Aug 15:52:26 16:01:06 63° 267° (W) 16:09:43
JAS-2 30 Aug 15:52:55 16:00:37 88° 255° (WSW) 16:08:33 435.910
Cosmos 2499 30 Aug 15:53:06 16:01:23 45° 70° (ENE) 16:09:15 435.465 / 435.565
ITAMSAT 1 30 Aug 15:57:54 16:02:48 41° 262° (W) 16:07:41 435.822/435.867
TISAT 1 30 Aug 15:58:05 16:00:14 13° 298° (WNW) 16:02:12 437.305
KKS-1 30 Aug 16:00:41 16:04:09 22° 92° (E) 16:07:43 437.445
BEESAT 30 Aug 16:00:49 16:05:34 69° 286° (WNW) 16:10:17 436.000
HORYU 2 30 Aug 16:11:34 16:15:45 39° 70° (ENE) 16:19:58 437.375
AO-7 30 Aug 16:19:24 16:27:43 75° 68° (ENE) 16:36:03 29.400- 29.500
SWISSCUBE 30 Aug 16:26:50 16:31:13 36° 291° (WNW) 16:35:32 437.505
RS-15 30 Aug 16:48:17 16:58:10 43° 110° (ESE) 17:08:35 29.354- 29.394
BEESAT 3 30 Aug 16:49:50 16:53:54 86° 304° (NW) 16:58:01 437.485
BEESAT 2 30 Aug 16:59:35 17:03:41 90° 144° (SE) 17:07:50 435.950
ITUPSAT 1 30 Aug 17:05:20 17:08:46 19° 297° (WNW) 17:12:03 437.325
ISS 30 Aug 17:18:26 17:21:18 28° 220° (SW) 17:24:08 145.825
STARS 30 Aug 17:21:40 17:26:09 89° 104° (ESE) 17:30:36 437.465
AIST 2 30 Aug 17:25:44 17:29:37 36° 118° (ESE) 17:33:34 435.215
Cubesat XI-IV 30 Aug 17:27:55 17:30:29 14° 57° (ENE) 17:33:17 437.490
KKS-1 30 Aug 17:36:44 17:40:58 40° 290° (WNW) 17:45:09 437.445
MOZHAYETS 4 30 Aug 17:38:06 17:42:16 34° 96° (E) 17:46:26
JAS-2 30 Aug 17:41:19 17:46:47 20° 276° (W) 17:52:00 435.910
Cosmos 2499 30 Aug 17:46:26 17:54:37 45° 272° (W) 18:02:12 435.465 / 435.565
HORYU 2 30 Aug 17:48:56 17:52:32 23° 267° (W) 17:56:04 437.375
GONETS M04 30 Aug 17:53:01 17:56:19 12° 287° (WNW) 17:58:56
CUTE-I 30 Aug 18:10:57 18:15:31 31° 65° (ENE) 18:20:10 437.470
AO-7 30 Aug 18:14:32 18:21:23 26° 269° (W) 18:27:57 29.400- 29.500
BEESAT 3 30 Aug 18:30:03 18:32:28 15° 326° (NW) 18:34:49 437.485
BEESAT 2 30 Aug 18:39:48 18:42:20 15° 325° (NW) 18:44:49 435.950
RS-15 30 Aug 18:59:18 19:10:13 63° 315° (NW) 19:21:37 29.354- 29.394
STARS 30 Aug 19:00:22 19:01:58 12° 301° (WNW) 19:03:22 437.465
AIST 1 30 Aug 19:01:25 19:02:55 12° 64° (ENE) 19:04:38
AIST 2 30 Aug 19:04:29 19:08:15 29° 316° (NW) 19:12:00 435.215
Cubesat XI-IV 30 Aug 19:04:33 19:09:53 86° 77° (ENE) 19:15:15 437.490
HO-68 30 Aug 19:11:35 19:15:19 16° 49° (NE) 19:19:20 435.675
O/OREOS (USA 219) 30 Aug 19:11:52 19:13:49 13° 99° (E) 19:15:59 437.305
MOZHAYETS 4 30 Aug 19:15:32 19:19:23 27° 293° (WNW) 19:23:09
BRITE-PL 30 Aug 19:26:33 19:29:56 23° 64° (ENE) 19:33:38 437.365/2234.400
CUBESAT XI-V 30 Aug 19:27:41 19:32:06 43° 98° (E) 19:36:32 437.345
CUTE-I 30 Aug 19:50:32 19:55:30 39° 263° (W) 20:00:28 437.470
GOMX 1 30 Aug 20:01:57 20:05:53 30° 67° (ENE) 20:10:08 467.674
Cosmos 2491 30 Aug 20:05:46 20:13:17 32° 65° (ENE) 20:21:00 435.465 / 435.565
CUTE 1.7 + AOD 2 30 Aug 20:08:25 20:10:46 15° 63° (ENE) 20:13:16 437.475
CANX-2 30 Aug 20:21:10 20:24:24 22° 66° (ENE) 20:27:45 2200.000
STRAND 1 30 Aug 20:21:24 20:26:09 39° 97° (E) 20:30:57 437.568
YUBILEINY 30 Aug 20:21:48 20:25:08 13° 74° (ENE) 20:29:06 435.215
DOVE 4 30 Aug 20:22:09 20:26:09 30° 67° (ENE) 20:30:27 437.250
PRISM 30 Aug 20:30:18 20:33:57 31° 96° (E) 20:37:39 437.425
AIST 1 30 Aug 20:36:52 20:41:11 72° 264° (W) 20:45:31
SEEDS 30 Aug 20:44:44 20:48:17 27° 68° (ENE) 20:51:54 437.485
O/OREOS (USA 219) 30 Aug 20:48:10 20:52:42 71° 297° (WNW) 20:57:17 437.305
Cubesat XI-IV 30 Aug 20:48:13 20:50:49 13° 274° (W) 20:53:06 437.490
HO-68 30 Aug 20:54:48 21:01:51 66° 69° (ENE) 21:09:00 435.675
BRITE-PL 30 Aug 21:04:08 21:08:15 40° 264° (W) 21:12:39 437.365/2234.400
CUBESAT XI-V 30 Aug 21:05:40 21:09:19 23° 295° (WNW) 21:12:53 437.345
COMPASS 1 30 Aug 21:08:31 21:12:23 37° 71° (ENE) 21:16:17 437.405
RS-15 30 Aug 21:15:51 21:25:30 31° 346° (NNW) 21:35:28 29.354- 29.394
CINEMA 3 30 Aug 21:16:55 21:21:23 46° 71° (ENE) 21:26:06 145.822/145.860
CUBEBUG 2 30 Aug 21:17:11 21:20:49 23° 65° (ENE) 21:24:37 437.445
AAUSAT CUBESAT 2 30 Aug 21:19:50 21:23:46 41° 71° (ENE) 21:27:44 437.432
ZACube-1 30 Aug 21:23:58 21:26:49 17° 63° (ENE) 21:29:48 437.345
UWE-3 30 Aug 21:27:01 21:30:35 23° 65° (ENE) 21:34:17 435.000/436.395/437.385
FUNcube-1 30 Aug 21:29:43 21:32:46 18° 64° (ENE) 21:35:59 145.935
GOMX 1 30 Aug 21:39:59 21:44:00 31° 267° (W) 21:48:15 467.674
CUTE 1.7 + AOD 2 30 Aug 21:41:59 21:46:15 61° 260° (W) 21:50:30 437.475
DELFI C3 30 Aug 21:53:39 21:57:06 28° 69° (ENE) 22:00:36 145.870
CANX-2 30 Aug 21:56:05 22:00:08 39° 263° (W) 22:04:10 2200.000
DOVE 4 30 Aug 21:59:42 22:03:51 32° 266° (W) 22:08:14 437.250
STRAND 1 30 Aug 22:00:52 22:05:15 29° 295° (WNW) 22:09:35 437.568
Cosmos 2491 30 Aug 22:02:14 22:10:52 64° 267° (W) 22:19:26 435.465 / 435.565
PRISM 30 Aug 22:05:54 22:09:17 24° 293° (WNW) 22:12:34 437.425
DX 1 30 Aug 22:11:01 22:12:46 13° 60° (ENE) 22:14:43 434.975-435.025
YUBILEINY 30 Aug 22:11:46 22:20:24 67° 93° (E) 22:29:09 435.215
Oscar 11 30 Aug 22:18:04 22:22:25 80° 77° (ENE) 22:26:48 145.826/435.025
HUMSAT D 30 Aug 22:18:59 22:22:21 23° 66° (ENE) 22:25:48 437.325/437.525
SEEDS 30 Aug 22:20:14 22:24:00 30° 265° (W) 22:27:45 437.485
UKube-1 30 Aug 22:24:50 22:27:18 15° 62° (ENE) 22:29:55 .
AISAT 30 Aug 22:27:55 22:29:42 13° 60° (ENE) 22:31:41 437.250
O/OREOS (USA 219) 30 Aug 22:31:39 22:33:06 11° 317° (NW) 22:34:23 437.305
50 SAT 30 Aug 22:42:22 22:44:51 17° 65° (ENE) 22:47:27 437.505
HO-68 30 Aug 22:44:19 22:50:13 26° 269° (W) 22:55:57 435.675
COMPASS 1 30 Aug 22:44:55 22:48:11 21° 268° (W) 22:51:23 437.405
CUBEBUG 2 30 Aug 22:52:49 22:57:15 43° 263° (W) 23:01:47 437.445
VELOX 1 30 Aug 22:54:47 22:58:04 22° 65° (ENE) 23:01:29 145.980
CINEMA 3 30 Aug 22:55:13 22:58:52 21° 270° (W) 23:02:32 145.822/145.860
AAUSAT CUBESAT 2 30 Aug 22:56:31 22:59:34 19° 269° (W) 23:02:30 437.432
